Change the Weather History Date:

Saturday, January 5, 2013

  Actual Average Record
Temperature  
Mean Temperature 45 °F -  
Max Temperature 46 °F 43 °F 48 °F (1998)
Min Temperature 44 °F 39 °F 32 °F (2003)
Degree Days  
Heating Degree Days 20    
Moisture  
Dew Point 45 °F    
Average Humidity 95    
Maximum Humidity 100    
Minimum Humidity 90    
Precipitation  
Precipitation 0.00 in - - ()
Sea Level Pressure  
Sea Level Pressure 30.38 in    
Wind  
Wind Speed 13 mph ()    
Max Wind Speed 21 mph    
Max Gust Speed -    
Visibility 6.2 miles    
Events Rain    
Averages and records for this station are not official NWS values.
T = Trace of Precipitation, MM = Missing Value Source: Averaged Metar Reports

Daily Weather History Graph

Daily Weather History Graph

Search for Another Location

Airport or City:

Trip Planner

Search our weather history database for the weather conditions in past years. The results will help you decide how hot, cold, wet, or windy it might be!

Date:

Astronomy

Jan. 05, 2013 Rise Set
Actual Time 9:20 AM CET 4:25 PM CET
Civil Twilight 8:32 AM CET 5:12 PM CET
Nautical Twilight 7:43 AM CET 6:01 PM CET
Astronomical Twilight 6:57 AM CET 6:47 PM CET
Moon 1:22 AM CET (1/5) 11:47 AM CET (1/5)
Length of Visible Light 8h 39m
Length of Day
7h 05m
Waning Gibbous, 47% of the Moon is Illuminated
Jan 5
Waning Gibbous
Jan 11
New
Jan 19
First Quarter
Jan 27
Full
Feb 3
Last Quarter

Hourly Weather History & Observations

Time (CET) Temp. Windchill Dew Point Humidity Pressure Visibility Wind Dir Wind Speed Gust Speed Precip Events Conditions
12:20 AM 46.4 °F 39.0 °F 44.6 °F 93% 30.42 in 6.2 mi NW 19.6 mph - N/A   Mostly Cloudy
12:50 AM 46.4 °F 39.2 °F 44.6 °F 93% 30.42 in 6.2 mi NW 18.4 mph - N/A   Mostly Cloudy
1:00 AM 46 °F - 45 °F 94% 30.43 in 12 mi NNW 13.4 mph - -   Partly Cloudy
1:20 AM 46.4 °F 39.0 °F 46.4 °F 100% 30.39 in 6.2 mi North 19.6 mph - N/A   Mostly Cloudy
1:50 AM 46.4 °F 38.7 °F 46.4 °F 100% 30.39 in 6.2 mi North 20.7 mph - N/A   Mostly Cloudy
2:20 AM 46.4 °F 39.2 °F 46.4 °F 100% 30.39 in 6.2 mi North 18.4 mph - N/A   Scattered Clouds
2:50 AM 46.4 °F 40.1 °F 44.6 °F 93% 30.39 in 6.2 mi NNW 15.0 mph - N/A   Partly Cloudy
3:20 AM 46.4 °F 41.9 °F 44.6 °F 93% 30.39 in - NW 9.2 mph - N/A   Clear
4:20 AM 46.4 °F 40.4 °F 44.6 °F 93% 30.39 in - NW 13.8 mph - N/A   Clear
4:50 AM 44.6 °F 38.1 °F 44.6 °F 100% 30.39 in 6.2 mi NW 13.8 mph - N/A   Partly Cloudy
5:20 AM 44.6 °F 39.7 °F 44.6 °F 100% 30.42 in 6.2 mi WNW 9.2 mph - N/A   Mostly Cloudy
5:50 AM 44.6 °F 40.7 °F 44.6 °F 100% 30.42 in 6.2 mi WNW 6.9 mph - N/A   Mostly Cloudy
6:20 AM 46.4 °F 42.9 °F 44.6 °F 93% 30.42 in 6.2 mi West 6.9 mph - N/A   Mostly Cloudy
6:50 AM 46.4 °F 43.5 °F 44.6 °F 93% 30.42 in 6.2 mi WSW 5.8 mph - N/A   Mostly Cloudy
7:00 AM 46 °F - 45 °F 93% 30.44 in 6 mi WSW 4.5 mph - -   Partly Cloudy
7:20 AM 46.4 °F 42.4 °F 44.6 °F 93% 30.42 in 6.2 mi WSW 8.1 mph - N/A   Mostly Cloudy
7:50 AM 46.4 °F 42.9 °F 44.6 °F 93% 30.42 in 6.2 mi WSW 6.9 mph - N/A   Mostly Cloudy
8:20 AM 46.4 °F 42.9 °F 46.4 °F 100% 30.42 in 6.2 mi WSW 6.9 mph - N/A   Mostly Cloudy
8:50 AM 46.4 °F 42.9 °F 44.6 °F 93% 30.42 in 6.2 mi WSW 6.9 mph - N/A   Overcast
9:20 AM 46.4 °F 41.9 °F 44.6 °F 93% 30.42 in 6.2 mi West 9.2 mph - N/A   Overcast
9:50 AM 46.4 °F 41.5 °F 44.6 °F 93% 30.42 in 6.2 mi West 10.4 mph - N/A   Mostly Cloudy
10:50 AM 46.4 °F 41.9 °F 44.6 °F 93% 30.42 in 6.2 mi WSW 9.2 mph - N/A   Mostly Cloudy
11:20 AM 46.4 °F 41.9 °F 44.6 °F 93% 30.42 in 6.2 mi WSW 9.2 mph - N/A   Mostly Cloudy
11:50 AM 46.4 °F 41.9 °F 44.6 °F 93% 30.42 in 6.2 mi WSW 9.2 mph - N/A   Mostly Cloudy
12:20 PM 46.4 °F 41.1 °F 44.6 °F 93% 30.42 in 6.2 mi WSW 11.5 mph - N/A   Mostly Cloudy
12:50 PM 46.4 °F 40.1 °F 44.6 °F 93% 30.39 in 6.2 mi SW 15.0 mph - N/A   Light Drizzle
1:00 PM 46 °F - 44 °F 90% 30.41 in 2 mi SW 11.2 mph - - Rain Light Drizzle
1:20 PM 46.4 °F 40.1 °F 44.6 °F 93% 30.39 in 6.2 mi SSW 15.0 mph - N/A   Light Drizzle
1:50 PM 44.6 °F 37.8 °F 44.6 °F 100% 30.39 in 6.2 mi SW 15.0 mph - N/A   Mostly Cloudy
2:20 PM 44.6 °F 37.8 °F 44.6 °F 100% 30.36 in 6.2 mi SW 15.0 mph - N/A   Mostly Cloudy
3:20 PM 44.6 °F 36.6 °F 44.6 °F 100% 30.36 in 6.2 mi SW 19.6 mph - N/A   Mostly Cloudy
3:50 PM 44.6 °F 36.6 °F 44.6 °F 100% 30.36 in 6.2 mi SW 19.6 mph - N/A   Mostly Cloudy
4:20 PM 46.4 °F 38.7 °F 44.6 °F 93% 30.36 in 6.2 mi SW 20.7 mph - N/A   Mostly Cloudy
4:50 PM 46.4 °F 39.0 °F 44.6 °F 93% 30.33 in 6.2 mi SW 19.6 mph - N/A   Mostly Cloudy
5:20 PM 46.4 °F 38.7 °F 44.6 °F 93% 30.33 in 6.2 mi SW 20.7 mph - N/A   Mostly Cloudy
5:50 PM 46.4 °F 39.0 °F 44.6 °F 93% 30.33 in 6.2 mi SW 19.6 mph - N/A   Mostly Cloudy
6:20 PM 46.4 °F 39.2 °F 44.6 °F 93% 30.33 in 6.2 mi SW 18.4 mph - N/A   Mostly Cloudy
6:50 PM 46.4 °F 38.7 °F 44.6 °F 93% 30.33 in 6.2 mi SW 20.7 mph - N/A   Mostly Cloudy
7:00 PM 46 °F - 45 °F 93% 30.33 in 12 mi SW 15.7 mph - -   Partly Cloudy
7:20 PM 46.4 °F 38.7 °F 44.6 °F 93% 30.30 in 6.2 mi SW 20.7 mph - N/A   Overcast
7:50 PM 46.4 °F 39.8 °F 44.6 °F 93% 30.30 in 6.2 mi SW 16.1 mph - N/A   Overcast
8:20 PM 46.4 °F 39.0 °F 44.6 °F 93% 30.30 in 6.2 mi SW 19.6 mph - N/A   Overcast
8:50 PM 44.6 °F 36.6 °F 44.6 °F 100% 30.30 in 1.2 mi SW 19.6 mph - N/A   Overcast
9:20 PM 44.6 °F 36.6 °F 44.6 °F 100% 30.30 in 3.1 mi SW 19.6 mph - N/A   Mostly Cloudy
10:20 PM 44.6 °F 36.6 °F 44.6 °F 100% 30.27 in 6.2 mi WSW 19.6 mph - N/A   Scattered Clouds
10:50 PM 44.6 °F 36.9 °F 44.6 °F 100% 30.27 in 6.2 mi WSW 18.4 mph - N/A   Scattered Clouds
11:20 PM 44.6 °F 36.6 °F 44.6 °F 100% 30.27 in 6.2 mi WSW 19.6 mph - N/A   Scattered Clouds